"Platform","Saginaw Bay ReCON Buoy"
"NDBC ID","45163"
"Latitude (deg)",43.98440
"Longitude (deg)",-83.59753
"Water Depth (m)",12.7
"Sensor Device","System Power Controller board voltage input"
"Sensor Type","Solar panel voltage"
"Sensor Units","voltage"
"Measurement","A sample"
"Time means","Time at sample (UTC time zone)"

"Note:","This data was collected for research purposes."
"Note:","Minimal quality checking has been performed so data may contain known or unknown errors."
"Note:","Data provided by NOAA. Please credit NOAA."
"Note:","For more info see www.glerl.noaa.gov/res/recon"

"Time (UTC)","Solar Panel"
"YYYY/MM/DD HH:MM","volts"
2024/05/16 00:18, 13.73
2024/05/16 00:38, 12.63
2024/05/16 00:58, 13.24
2024/05/16 01:18, 4.43
2024/05/16 01:38, 0.38
2024/05/16 01:58, 0.38
2024/05/16 02:18, 0.38
2024/05/16 02:38, 0.38
2024/05/16 02:58, 0.38
2024/05/16 03:18, 0.38
2024/05/16 03:38, 0.38
2024/05/16 03:58, 0.38
2024/05/16 04:18, 0.38
2024/05/16 04:38, 0.38
2024/05/16 04:58, 0.38
2024/05/16 05:18, 0.38
2024/05/16 05:38, 0.38
2024/05/16 05:58, 0.38
2024/05/16 06:18, 0.38
2024/05/16 06:38, 0.38
2024/05/16 06:58, 0.38
2024/05/16 07:18, 0.38
2024/05/16 07:38, 0.38
2024/05/16 07:58, 0.38
2024/05/16 08:18, 0.38
2024/05/16 08:38, 0.38
2024/05/16 08:58, 0.38
2024/05/16 09:18, 0.38
2024/05/16 09:38, 4.31
2024/05/16 09:58, 12.99
2024/05/16 10:18, 12.23
2024/05/16 10:38, 15.06
2024/05/16 10:58, 15.92
2024/05/16 11:18, 16.50
2024/05/16 11:38, 16.01
2024/05/16 11:58, 19.66
2024/05/16 12:18, 19.64
2024/05/16 12:38, 19.66
2024/05/16 12:58, 19.77
2024/05/16 13:18, 19.94
2024/05/16 13:38, 19.71
2024/05/16 13:58, 19.84
2024/05/16 14:18, 20.09
2024/05/16 14:38, 20.06
2024/05/16 14:58, 19.97
2024/05/16 15:18, 19.65
2024/05/16 15:38, 19.99
2024/05/16 15:58, 20.15
2024/05/16 16:18, 20.21
2024/05/16 16:38, 20.12
2024/05/16 16:58, 19.99
2024/05/16 17:18, 20.43
2024/05/16 17:38, 19.96
2024/05/16 17:58, 20.06
2024/05/16 18:18, 19.93
2024/05/16 18:38, 20.12
2024/05/16 18:58, 20.20
2024/05/16 19:18, 20.13
2024/05/16 19:38, 20.15
2024/05/16 19:58, 20.04
2024/05/16 20:18, 20.13
2024/05/16 20:38, 20.26
2024/05/16 20:58, 20.17
2024/05/16 21:18, 19.62
2024/05/16 21:38, 19.81
2024/05/16 21:58, 19.69
2024/05/16 22:18, 18.96
2024/05/16 22:38, 19.45
2024/05/16 22:58, 17.46
2024/05/16 23:18, 14.88
2024/05/16 23:38, 14.86
2024/05/16 23:58, 14.24
2024/05/17 00:18, 15.41
2024/05/17 00:38, 12.90
2024/05/17 00:58, 13.91
2024/05/17 01:18, 4.22
2024/05/17 01:38, 0.38
2024/05/17 01:58, 0.38
2024/05/17 02:18, 0.38
2024/05/17 02:38, 0.38
2024/05/17 02:58, 0.38
2024/05/17 03:18, 0.38
2024/05/17 03:38, 0.38
2024/05/17 03:58, 0.38
2024/05/17 04:18, 0.38
2024/05/17 04:38, 0.38
2024/05/17 04:58, 0.38
2024/05/17 05:18, 0.38
2024/05/17 05:38, 0.38
2024/05/17 05:58, 0.38
2024/05/17 06:18, 0.38
2024/05/17 06:38, 0.38
2024/05/17 06:58, 0.38
2024/05/17 07:18, 0.38
2024/05/17 07:38, 0.38
2024/05/17 07:58, 0.38
2024/05/17 08:18, 0.38
2024/05/17 08:38, 0.38
2024/05/17 08:58, 0.38
2024/05/17 09:18, 0.38
2024/05/17 09:38, 0.86
2024/05/17 09:58, 9.86
2024/05/17 10:18, 12.24
2024/05/17 10:38, 15.39
2024/05/17 10:58, 18.03
2024/05/17 11:18, 18.30
2024/05/17 11:38, 19.34
2024/05/17 11:58, 18.81
2024/05/17 12:18, 19.36
2024/05/17 12:38, 17.32
2024/05/17 12:58, 15.73
2024/05/17 13:18, 19.72
2024/05/17 13:38, 19.91
2024/05/17 13:58, 19.61
2024/05/17 14:18, 19.62
2024/05/17 14:38, 19.66
2024/05/17 14:58, 19.53
2024/05/17 15:18, 19.34
2024/05/17 15:38, 19.38
2024/05/17 15:58, 19.34
2024/05/17 16:18, 19.38
2024/05/17 16:38, 19.36
2024/05/17 16:58, 19.33
2024/05/17 17:18, 19.18
2024/05/17 17:38, 18.97
2024/05/17 17:58, 19.33
2024/05/17 18:18, 19.33
2024/05/17 18:38, 19.38
2024/05/17 18:58, 19.32
2024/05/17 19:18, 18.91
2024/05/17 19:38, 18.76
2024/05/17 19:58, 18.68
2024/05/17 20:18, 18.77
2024/05/17 20:38, 18.55
2024/05/17 20:58, 18.59
2024/05/17 21:18, 19.60
2024/05/17 21:38, 19.51
2024/05/17 21:58, 19.40
2024/05/17 22:18, 19.43
2024/05/17 22:38, 19.63
2024/05/17 22:58, 19.41
2024/05/17 23:18, 19.76
2024/05/17 23:38, 19.68
2024/05/17 23:58, 19.34
2024/05/18 00:18, 17.92
2024/05/18 00:38, 12.84
2024/05/18 00:58, 13.90
2024/05/18 01:18, 6.56
2024/05/18 01:38, 0.38
2024/05/18 01:58, 0.38
2024/05/18 02:18, 0.38
2024/05/18 02:38, 0.38
2024/05/18 02:58, 0.38
2024/05/18 03:18, 0.38
2024/05/18 03:38, 0.38
2024/05/18 03:58, 0.38
2024/05/18 04:18, 0.38
2024/05/18 04:38, 0.38
2024/05/18 04:58, 0.38
2024/05/18 05:18, 0.38
2024/05/18 05:38, 0.38
2024/05/18 05:58, 0.38
2024/05/18 06:18, 0.38
2024/05/18 06:38, 0.38
2024/05/18 06:58, 0.38
2024/05/18 07:18, 0.38
2024/05/18 07:38, 0.38
2024/05/18 07:58, 0.38
2024/05/18 08:18, 0.38
2024/05/18 08:38, 0.38
2024/05/18 08:58, 0.38
2024/05/18 09:18, 0.38
2024/05/18 09:38, 4.23
2024/05/18 09:58, 10.90
2024/05/18 10:18, 13.88
2024/05/18 10:38, 12.23
2024/05/18 10:58, 12.84
2024/05/18 11:18, 13.69
2024/05/18 11:38, 14.25
2024/05/18 11:58, 14.34
2024/05/18 12:18, 14.71
2024/05/18 12:38, 15.26
2024/05/18 12:58, 15.41
2024/05/18 13:18, 15.39
2024/05/18 13:38, 15.77
2024/05/18 13:58, 17.34
2024/05/18 14:18, 18.02
2024/05/18 14:38, 19.32
2024/05/18 14:58, 18.95
2024/05/18 15:18, 19.41
2024/05/18 15:38, 19.29
2024/05/18 15:58, 19.11
2024/05/18 16:18, 19.32
2024/05/18 16:38, 19.27
2024/05/18 16:58, 19.12
2024/05/18 17:18, 18.97
2024/05/18 17:38, 19.34
2024/05/18 17:58, 19.34
2024/05/18 18:18, 19.35
2024/05/18 18:38, 19.37
2024/05/18 18:58, 19.94
2024/05/18 19:18, 19.73
2024/05/18 19:38, 19.71
2024/05/18 19:58, 19.82
2024/05/18 20:18, 19.78
2024/05/18 20:38, 19.85
2024/05/18 20:58, 19.79
2024/05/18 21:18, 19.63
2024/05/18 21:38, 19.77
2024/05/18 21:58, 19.38
2024/05/18 22:18, 19.52
2024/05/18 22:38, 19.55
2024/05/18 22:58, 19.70
2024/05/18 23:18, 19.67
2024/05/18 23:38, 19.70
2024/05/18 23:58, 19.47
2024/05/19 00:18, 18.65
2024/05/19 00:38, 14.93
2024/05/19 00:58, 13.29
2024/05/19 01:18, 6.01
2024/05/19 01:38, 0.38
2024/05/19 01:58, 0.38
2024/05/19 02:18, 0.38
2024/05/19 02:38, 0.38
2024/05/19 02:58, 0.38
2024/05/19 03:18, 0.38
2024/05/19 03:38, 0.38
2024/05/19 03:58, 0.38
2024/05/19 04:18, 0.38
2024/05/19 04:38, 0.38
2024/05/19 04:58, 0.38
2024/05/19 05:18, 0.38
2024/05/19 05:38, 0.38
2024/05/19 05:58, 0.38
2024/05/19 06:18, 0.38
2024/05/19 06:38, 0.38
2024/05/19 06:58, 0.38
2024/05/19 07:18, 0.38
2024/05/19 07:38, 0.38
2024/05/19 07:58, 0.38
2024/05/19 08:18, 0.38
2024/05/19 08:38, 0.38
2024/05/19 08:58, 0.38
2024/05/19 09:18, 0.38
2024/05/19 09:38, 3.63
2024/05/19 09:58, 12.23
2024/05/19 10:18, 12.92
2024/05/19 10:38, 12.62
2024/05/19 10:58, 12.89
2024/05/19 11:18, 14.60
2024/05/19 11:38, 14.20
2024/05/19 11:58, 15.19
2024/05/19 12:18, 19.35
2024/05/19 12:38, 19.34
2024/05/19 12:58, 19.34
2024/05/19 13:18, 18.96
2024/05/19 13:38, 19.07
2024/05/19 13:58, 19.34
2024/05/19 14:18, 19.34
2024/05/19 14:38, 19.63
2024/05/19 14:58, 19.34
2024/05/19 15:18, 18.72
2024/05/19 15:38, 19.58
2024/05/19 15:58, 19.34
2024/05/19 16:18, 19.20
2024/05/19 16:38, 18.96
2024/05/19 16:58, 18.94
2024/05/19 17:18, 18.85
2024/05/19 17:38, 18.58
2024/05/19 17:58, 18.64
2024/05/19 18:18, 18.96
2024/05/19 18:38, 18.81
2024/05/19 18:58, 19.64
2024/05/19 19:18, 19.75
2024/05/19 19:38, 19.93
2024/05/19 19:58, 19.87
2024/05/19 20:18, 20.01
2024/05/19 20:38, 20.03
2024/05/19 20:58, 19.93
2024/05/19 21:18, 20.04
2024/05/19 21:38, 20.10
2024/05/19 21:58, 19.96
2024/05/19 22:18, 19.39
2024/05/19 22:38, 19.99
2024/05/19 22:58, 19.77
2024/05/19 23:18, 19.92
2024/05/19 23:38, 19.79
2024/05/19 23:58, 19.31
2024/05/20 00:18, 14.37
2024/05/20 00:38, 14.87
2024/05/20 00:58, 12.33
2024/05/20 01:18, 5.97
2024/05/20 01:38, 0.38
2024/05/20 01:58, 0.38
2024/05/20 02:18, 0.38
2024/05/20 02:38, 0.38
2024/05/20 02:58, 0.38
2024/05/20 03:18, 0.38
2024/05/20 03:38, 0.38
2024/05/20 03:58, 0.38
2024/05/20 04:18, 0.38
2024/05/20 04:38, 0.38
2024/05/20 04:58, 0.38
2024/05/20 05:18, 0.38
2024/05/20 05:38, 0.38
2024/05/20 05:58, 0.38
2024/05/20 06:18, 0.38
2024/05/20 06:38, 0.38
2024/05/20 06:58, 0.38
2024/05/20 07:18, 0.38
2024/05/20 07:38, 0.38
2024/05/20 07:58, 0.38
2024/05/20 08:18, 0.38
2024/05/20 08:38, 0.38
2024/05/20 08:58, 0.38
2024/05/20 09:18, 0.38
2024/05/20 09:38, 2.63
2024/05/20 09:58, 10.94
2024/05/20 10:18, 12.08
2024/05/20 10:38, 13.84
2024/05/20 10:58, 15.68
2024/05/20 11:18, 15.34
2024/05/20 11:38, 16.08
2024/05/20 11:58, 19.40
2024/05/20 12:18, 18.60
2024/05/20 12:38, 19.36
2024/05/20 12:58, 19.41
2024/05/20 13:18, 19.34
2024/05/20 13:38, 18.54
2024/05/20 13:58, 19.65
2024/05/20 14:18, 19.62
2024/05/20 14:38, 19.62
2024/05/20 14:58, 19.66
2024/05/20 15:18, 20.03
2024/05/20 15:38, 19.69
2024/05/20 15:58, 19.86
2024/05/20 16:18, 19.65
2024/05/20 16:38, 20.02
2024/05/20 16:58, 19.55
2024/05/20 17:18, 19.41
2024/05/20 17:38, 19.19
2024/05/20 17:58, 14.89
2024/05/20 18:18, 15.10
2024/05/20 18:38, 15.56
2024/05/20 18:58, 18.64
2024/05/20 19:18, 18.96
2024/05/20 19:38, 19.33
2024/05/20 19:58, 19.40
2024/05/20 20:18, 19.44
2024/05/20 20:38, 19.51
2024/05/20 20:58, 19.63
2024/05/20 21:18, 19.65
2024/05/20 21:38, 19.55
2024/05/20 21:58, 19.40
2024/05/20 22:18, 19.32
2024/05/20 22:38, 19.23
2024/05/20 22:58, 19.34
2024/05/20 23:18, 14.87
2024/05/20 23:38, 13.87
2024/05/20 23:58, 12.80
2024/05/21 00:18, 12.60
2024/05/21 00:38, 13.41
2024/05/21 00:58, 5.91
2024/05/21 01:18, 0.78
2024/05/21 01:38, 0.38
2024/05/21 01:58, 0.38
2024/05/21 02:18, 0.38
2024/05/21 02:38, 0.38
2024/05/21 02:58, 0.38
2024/05/21 03:18, 0.38
2024/05/21 03:38, 0.38
2024/05/21 03:58, 0.38
2024/05/21 04:18, 0.38
2024/05/21 04:38, 0.38
2024/05/21 04:58, 0.38
2024/05/21 05:18, 0.38
2024/05/21 05:38, 0.38
2024/05/21 05:58, 0.38
2024/05/21 06:18, 0.38
2024/05/21 06:38, 0.38
2024/05/21 06:58, 0.38
2024/05/21 07:18, 0.38
2024/05/21 07:38, 0.38
2024/05/21 07:58, 0.38
2024/05/21 08:18, 0.38
2024/05/21 08:38, 0.38
2024/05/21 08:58, 0.38
2024/05/21 09:18, 0.38
2024/05/21 09:38, 0.38
2024/05/21 09:58, 6.79
2024/05/21 10:18, 10.17
2024/05/21 10:38, 12.10
2024/05/21 10:58, 11.79
2024/05/21 11:18, 12.61
2024/05/21 11:38, 14.14
2024/05/21 11:58, 15.78
2024/05/21 12:18, 15.39
2024/05/21 12:38, 17.30
2024/05/21 12:58, 14.92
2024/05/21 13:18, 16.91
2024/05/21 13:38, 15.54
2024/05/21 13:58, 18.23
2024/05/21 14:18, 17.75
2024/05/21 14:38, 19.34
2024/05/21 14:58, 19.28
2024/05/21 15:18, 19.34
2024/05/21 15:38, 19.60
2024/05/21 15:58, 19.36
2024/05/21 16:18, 19.60
2024/05/21 16:38, 19.13
2024/05/21 16:58, 19.34
2024/05/21 17:18, 19.44
2024/05/21 17:38, 19.56
2024/05/21 17:58, 19.43
2024/05/21 18:18, 19.37
2024/05/21 18:38, 19.34
2024/05/21 18:58, 18.94
2024/05/21 19:18, 19.36
2024/05/21 19:38, 19.44
2024/05/21 19:58, 18.97
2024/05/21 20:18, 18.89
2024/05/21 20:38, 18.55
2024/05/21 20:58, 18.74
2024/05/21 21:18, 19.37
2024/05/21 21:38, 19.41
2024/05/21 21:58, 19.34
2024/05/21 22:18, 19.38
2024/05/21 22:38, 19.44
2024/05/21 22:58, 19.34
2024/05/21 23:18, 19.38
2024/05/21 23:38, 19.15
2024/05/21 23:58, 18.67
2024/05/22 00:18, 15.73
2024/05/22 00:38, 12.23
2024/05/22 00:58, 13.32
2024/05/22 01:18, 5.71
2024/05/22 01:38, 0.38
2024/05/22 01:58, 0.38
2024/05/22 02:18, 0.38
2024/05/22 02:38, 0.38
2024/05/22 02:58, 0.38
2024/05/22 03:18, 0.38
2024/05/22 03:38, 0.38
2024/05/22 03:58, 0.38
2024/05/22 04:18, 0.38
2024/05/22 04:38, 0.38
2024/05/22 04:58, 0.38
2024/05/22 05:18, 0.38
2024/05/22 05:38, 0.38
2024/05/22 05:58, 0.38
2024/05/22 06:18, 0.38
2024/05/22 06:38, 0.38
2024/05/22 06:58, 0.38
2024/05/22 07:18, 0.38
2024/05/22 07:38, 0.38
2024/05/22 07:58, 0.38
2024/05/22 08:18, 0.38
2024/05/22 08:38, 0.38
2024/05/22 08:58, 0.38
2024/05/22 09:18, 0.38
2024/05/22 09:38, 2.97
2024/05/22 09:58, 11.25
2024/05/22 10:18, 12.45
2024/05/22 10:38, 13.68
2024/05/22 10:58, 15.37
2024/05/22 11:18, 15.13
2024/05/22 11:38, 14.96
2024/05/22 11:58, 14.90
2024/05/22 12:18, 19.32
2024/05/22 12:38, 19.33
2024/05/22 12:58, 19.34
2024/05/22 13:18, 17.24
2024/05/22 13:38, 19.45
2024/05/22 13:58, 19.34
2024/05/22 14:18, 16.52
2024/05/22 14:38, 19.33
2024/05/22 14:58, 19.32
2024/05/22 15:18, 19.34
2024/05/22 15:38, 19.33
2024/05/22 15:58, 19.16
2024/05/22 16:18, 19.33
2024/05/22 16:38, 19.29
2024/05/22 16:58, 19.33
2024/05/22 17:18, 19.34
2024/05/22 17:38, 18.91
2024/05/22 17:58, 18.64
2024/05/22 18:18, 18.80
2024/05/22 18:38, 18.94
2024/05/22 18:58, 18.77
2024/05/22 19:18, 18.70
2024/05/22 19:38, 18.80
2024/05/22 19:58, 18.66
2024/05/22 20:18, 18.90
2024/05/22 20:38, 18.71
2024/05/22 20:58, 18.94
2024/05/22 21:18, 18.95
2024/05/22 21:38, 18.94
2024/05/22 21:58, 18.64
2024/05/22 22:18, 18.97
2024/05/22 22:38, 18.96
2024/05/22 22:58, 18.64
2024/05/22 23:18, 18.93
2024/05/22 23:38, 14.24
2024/05/22 23:58, 18.76
2024/05/23 00:18, 18.62
2024/05/23 00:38, 14.99
2024/05/23 00:58, 12.01
2024/05/23 01:18, 7.65
2024/05/23 01:38, 0.38
2024/05/23 01:58, 0.38
2024/05/23 02:18, 0.38
2024/05/23 02:38, 0.38
2024/05/23 02:58, 0.38
2024/05/23 03:18, 0.38
2024/05/23 03:38, 0.38
2024/05/23 03:58, 0.38
2024/05/23 04:18, 0.38
2024/05/23 04:38, 0.38
2024/05/23 04:58, 0.38
2024/05/23 05:18, 0.38
2024/05/23 05:38, 0.38
2024/05/23 05:58, 0.38
2024/05/23 06:18, 0.38
2024/05/23 06:38, 0.38
2024/05/23 06:58, 0.38
2024/05/23 07:18, 0.38
2024/05/23 07:38, 0.38
2024/05/23 07:58, 0.38
2024/05/23 08:18, 0.38
2024/05/23 08:38, 0.38
2024/05/23 08:58, 0.38
2024/05/23 09:18, 0.38
2024/05/23 09:38, 6.76
2024/05/23 09:58, 11.72
2024/05/23 10:18, 15.50
2024/05/23 10:38, 17.76
2024/05/23 10:58, 19.34
2024/05/23 11:18, 19.35
2024/05/23 11:38, 19.45
2024/05/23 11:58, 19.51
2024/05/23 12:18, 19.71
2024/05/23 12:38, 19.34
2024/05/23 12:58, 19.41
2024/05/23 13:18, 19.37
2024/05/23 13:38, 19.47
2024/05/23 13:58, 19.34
2024/05/23 14:18, 19.35
2024/05/23 14:38, 19.36
2024/05/23 14:58, 19.34
2024/05/23 15:18, 19.47
2024/05/23 15:38, 19.46
2024/05/23 15:58, 19.44
2024/05/23 16:18, 19.34
2024/05/23 16:38, 19.34
2024/05/23 16:58, 19.34
2024/05/23 17:18, 19.13
2024/05/23 17:38, 19.31
2024/05/23 17:58, 19.05
2024/05/23 18:18, 19.11
2024/05/23 18:38, 16.88
2024/05/23 18:58, 18.92
2024/05/23 19:18, 18.85
2024/05/23 19:38, 18.64
2024/05/23 19:58, 17.36
2024/05/23 20:18, 18.34
2024/05/23 20:38, 19.33
2024/05/23 20:58, 18.93
2024/05/23 21:18, 18.90
2024/05/23 21:38, 16.87
2024/05/23 21:58, 18.95
2024/05/23 22:18, 18.96
2024/05/23 22:38, 15.27
2024/05/23 22:58, 18.95
2024/05/23 23:18, 18.95
2024/05/23 23:38, 18.64
2024/05/23 23:58, 18.55
2024/05/24 00:18, 18.22
2024/05/24 00:38, 15.33
2024/05/24 00:58, 12.85
2024/05/24 01:18, 9.86
2024/05/24 01:38, 1.07
2024/05/24 01:58, 0.38
2024/05/24 02:18, 0.38
2024/05/24 02:38, 0.38
2024/05/24 02:58, 0.38
2024/05/24 03:18, 0.38
2024/05/24 03:38, 0.38
2024/05/24 03:58, 0.38
2024/05/24 04:18, 0.38
2024/05/24 04:38, 0.38
2024/05/24 04:58, 0.38
2024/05/24 05:18, 0.38
2024/05/24 05:38, 0.38
2024/05/24 05:58, 0.38
2024/05/24 06:18, 0.38
2024/05/24 06:38, 0.38
2024/05/24 06:58, 0.38
2024/05/24 07:18, 0.38
2024/05/24 07:38, 0.38
2024/05/24 07:58, 0.38
2024/05/24 08:18, 0.38
2024/05/24 08:38, 0.38
2024/05/24 08:58, 0.38
2024/05/24 09:18, 0.38
2024/05/24 09:38, 7.27
2024/05/24 09:58, 11.88
2024/05/24 10:18, 16.27
2024/05/24 10:38, 17.65
2024/05/24 10:58, 19.29
2024/05/24 11:18, 19.24
2024/05/24 11:38, 19.17
2024/05/24 11:58, 19.55
2024/05/24 12:18, 18.96
2024/05/24 12:38, 19.33
2024/05/24 12:58, 19.55
2024/05/24 13:18, 19.39
2024/05/24 13:38, 19.64
2024/05/24 13:58, 19.34
2024/05/24 14:18, 19.41
2024/05/24 14:38, 19.51
2024/05/24 14:58, 19.34
2024/05/24 15:18, 19.38
2024/05/24 15:38, 19.42
2024/05/24 15:58, 19.65
2024/05/24 16:18, 19.48
2024/05/24 16:38, 19.61
2024/05/24 16:58, 19.59
2024/05/24 17:18, 19.45
2024/05/24 17:38, 19.41
2024/05/24 17:58, 19.61
2024/05/24 18:18, 19.52
2024/05/24 18:38, 19.63
2024/05/24 18:58, 19.75
2024/05/24 19:18, 19.72
2024/05/24 19:38, 19.64
2024/05/24 19:58, 19.60
2024/05/24 20:18, 19.93
2024/05/24 20:38, 19.46
2024/05/24 20:58, 19.91
2024/05/24 21:18, 19.71
2024/05/24 21:38, 19.35
2024/05/24 21:58, 19.74
2024/05/24 22:18, 19.80
2024/05/24 22:38, 19.65
2024/05/24 22:58, 19.33
2024/05/24 23:18, 19.58
2024/05/24 23:38, 19.34
2024/05/24 23:58, 14.24
2024/05/25 00:18, 12.46
2024/05/25 00:38, 13.51
2024/05/25 00:58, 8.78
2024/05/25 01:18, 2.38
2024/05/25 01:38, 0.38
2024/05/25 01:58, 0.38
2024/05/25 02:18, 0.38
2024/05/25 02:38, 0.38
2024/05/25 02:58, 0.38
2024/05/25 03:18, 0.38
2024/05/25 03:38, 0.38
2024/05/25 03:58, 0.38
2024/05/25 04:18, 0.38
2024/05/25 04:38, 0.38
2024/05/25 04:58, 0.38
2024/05/25 05:18, 0.38
2024/05/25 05:38, 0.38
2024/05/25 05:58, 0.38
2024/05/25 06:18, 0.38
2024/05/25 06:38, 0.38
2024/05/25 06:58, 0.38
2024/05/25 07:18, 0.38
2024/05/25 07:38, 0.38
2024/05/25 07:58, 0.38
2024/05/25 08:18, 0.38
2024/05/25 08:38, 0.38
2024/05/25 08:58, 0.38
2024/05/25 09:18, 0.38
2024/05/25 09:38, 2.78
2024/05/25 09:58, 11.74
2024/05/25 10:18, 12.21
2024/05/25 10:38, 12.08
2024/05/25 10:58, 13.02
2024/05/25 11:18, 13.05
2024/05/25 11:38, 12.14
2024/05/25 11:58, 13.02
2024/05/25 12:18, 13.43
2024/05/25 12:38, 13.27
2024/05/25 12:58, 14.38
2024/05/25 13:18, 15.40
2024/05/25 13:38, 15.92
2024/05/25 13:58, 18.93
2024/05/25 14:18, 18.94
2024/05/25 14:38, 18.68
2024/05/25 14:58, 15.68
2024/05/25 15:18, 15.59
2024/05/25 15:38, 15.84
2024/05/25 15:58, 19.36
2024/05/25 16:18, 19.33
2024/05/25 16:38, 17.74
2024/05/25 16:58, 19.00
2024/05/25 17:18, 19.02
2024/05/25 17:38, 19.34
2024/05/25 17:58, 19.32
2024/05/25 18:18, 18.93
2024/05/25 18:38, 18.94
2024/05/25 18:58, 18.94
2024/05/25 19:18, 18.69
2024/05/25 19:38, 18.68
2024/05/25 19:58, 18.96
2024/05/25 20:18, 19.34
2024/05/25 20:38, 19.16
2024/05/25 20:58, 18.94
2024/05/25 21:18, 18.65
2024/05/25 21:38, 18.44
2024/05/25 21:58, 18.80
2024/05/25 22:18, 18.81
2024/05/25 22:38, 18.46
2024/05/25 22:58, 18.55
2024/05/25 23:18, 18.36
2024/05/25 23:38, 16.69
2024/05/25 23:58, 18.84
2024/05/26 00:18, 13.95
2024/05/26 00:38, 12.94
2024/05/26 00:58, 12.19
2024/05/26 01:18, 8.25
2024/05/26 01:38, 0.68
2024/05/26 01:58, 0.38
2024/05/26 02:18, 0.38
2024/05/26 02:38, 0.38
2024/05/26 02:58, 0.38
2024/05/26 03:18, 0.38
2024/05/26 03:38, 0.38
2024/05/26 03:58, 0.38
2024/05/26 04:18, 0.38
2024/05/26 04:38, 0.38
2024/05/26 04:58, 0.38
2024/05/26 05:18, 0.38
2024/05/26 05:38, 0.38
2024/05/26 05:58, 0.38
2024/05/26 06:18, 0.38
2024/05/26 06:38, 0.38
2024/05/26 06:58, 0.38
2024/05/26 07:18, 0.38
2024/05/26 07:38, 0.38
2024/05/26 07:58, 0.38
2024/05/26 08:18, 0.38
2024/05/26 08:38, 0.38
2024/05/26 08:58, 0.38
2024/05/26 09:18, 0.38
2024/05/26 09:38, 7.59
2024/05/26 09:58, 11.77
2024/05/26 10:18, 14.07
2024/05/26 10:38, 15.97
2024/05/26 10:58, 18.45
2024/05/26 11:18, 18.59
2024/05/26 11:38, 18.58
2024/05/26 11:58, 18.57
2024/05/26 12:18, 18.61
2024/05/26 12:38, 18.78
2024/05/26 12:58, 18.72
2024/05/26 13:18, 19.38
2024/05/26 13:38, 18.88
2024/05/26 13:58, 19.34
2024/05/26 14:18, 19.44
2024/05/26 14:38, 19.41
2024/05/26 14:58, 19.48
2024/05/26 15:18, 19.64
2024/05/26 15:38, 19.63
2024/05/26 15:58, 19.63
2024/05/26 16:18, 19.52
2024/05/26 16:38, 19.39
2024/05/26 16:58, 19.34
2024/05/26 17:18, 18.95
2024/05/26 17:38, 19.33
2024/05/26 17:58, 19.34
2024/05/26 18:18, 19.34
2024/05/26 18:38, 18.96
2024/05/26 18:58, 19.34
2024/05/26 19:18, 19.11
2024/05/26 19:38, 19.01
2024/05/26 19:58, 19.02
2024/05/26 20:18, 18.57
2024/05/26 20:38, 17.76
2024/05/26 20:58, 17.30
2024/05/26 21:18, 17.51
2024/05/26 21:38, 15.08
2024/05/26 21:58, 15.28
2024/05/26 22:18, 14.89
2024/05/26 22:38, 14.85
2024/05/26 22:58, 15.77
2024/05/26 23:18, 14.95
2024/05/26 23:38, 18.13
2024/05/26 23:58, 15.41
2024/05/27 00:18, 12.74
2024/05/27 00:38, 12.92
2024/05/27 00:58, 7.23
2024/05/27 01:18, 0.57
2024/05/27 01:38, 0.38
2024/05/27 01:58, 0.38
2024/05/27 02:18, 0.38
2024/05/27 02:38, 0.38
2024/05/27 02:58, 0.38
2024/05/27 03:18, 0.38
2024/05/27 03:38, 0.38
2024/05/27 03:58, 0.38
2024/05/27 04:18, 0.38
2024/05/27 04:38, 0.38
2024/05/27 04:58, 0.38
2024/05/27 05:18, 0.38
2024/05/27 05:38, 0.38
2024/05/27 05:58, 0.38
2024/05/27 06:18, 0.38
2024/05/27 06:38, 0.38
2024/05/27 06:58, 0.38
2024/05/27 07:18, 0.38
2024/05/27 07:38, 0.38
2024/05/27 07:58, 0.38
2024/05/27 08:18, 0.38
2024/05/27 08:38, 0.38
2024/05/27 08:58, 0.38
2024/05/27 09:18, 0.38
2024/05/27 09:38, 1.86
2024/05/27 09:58, 6.70
2024/05/27 10:18, 13.42
2024/05/27 10:38, 11.82
2024/05/27 10:58, 12.62
2024/05/27 11:18, 12.15
2024/05/27 11:38, 12.87
2024/05/27 11:58, 12.23
2024/05/27 12:18, 12.26
2024/05/27 12:38, 12.27
2024/05/27 12:58, 13.41
2024/05/27 13:18, 13.35
2024/05/27 13:38, 14.44
2024/05/27 13:58, 14.51
2024/05/27 14:18, 13.30
2024/05/27 14:38, 14.56
2024/05/27 14:58, 15.78
2024/05/27 15:18, 14.61
2024/05/27 15:38, 14.49
2024/05/27 15:58, 14.90
2024/05/27 16:18, 15.76
2024/05/27 16:38, 14.98
2024/05/27 16:58, 15.76
2024/05/27 17:18, 15.49
2024/05/27 17:38, 15.38
2024/05/27 17:58, 14.30
2024/05/27 18:18, 18.57
2024/05/27 18:38, 18.18
2024/05/27 18:58, 15.42
2024/05/27 19:18, 15.74
2024/05/27 19:38, 14.97
2024/05/27 19:58, 13.90
2024/05/27 20:18, 15.14
2024/05/27 20:38, 15.02
2024/05/27 20:58, 15.25
2024/05/27 21:18, 15.18
2024/05/27 21:38, 15.47
2024/05/27 21:58, 15.09
2024/05/27 22:18, 15.39
2024/05/27 22:38, 13.90
2024/05/27 22:58, 13.06
2024/05/27 23:18, 13.58
2024/05/27 23:38, 14.18
2024/05/27 23:58, 12.17
2024/05/28 00:18, 12.14
2024/05/28 00:38, 11.76
2024/05/28 00:58, 9.46
2024/05/28 01:18, 5.38
2024/05/28 01:38, 0.38
2024/05/28 01:58, 0.38
2024/05/28 02:18, 0.38
2024/05/28 02:38, 0.38
2024/05/28 02:58, 0.38
2024/05/28 03:18, 0.38
2024/05/28 03:38, 0.38
2024/05/28 03:58, 0.38
2024/05/28 04:18, 0.38
2024/05/28 04:38, 0.38
2024/05/28 04:58, 0.38
2024/05/28 05:18, 0.38
2024/05/28 05:38, 0.38
2024/05/28 05:58, 0.38
2024/05/28 06:18, 0.38
2024/05/28 06:38, 0.38
2024/05/28 06:58, 0.38
2024/05/28 07:18, 0.38
2024/05/28 07:38, 0.38
2024/05/28 07:58, 0.38
2024/05/28 08:18, 0.38
2024/05/28 08:38, 0.38
2024/05/28 08:58, 0.38
2024/05/28 09:18, 0.38
2024/05/28 09:38, 1.07
2024/05/28 09:58, 7.50
2024/05/28 10:18, 12.23
2024/05/28 10:38, 11.76
2024/05/28 10:58, 12.01
2024/05/28 11:18, 11.89
2024/05/28 11:38, 12.90
2024/05/28 11:58, 14.78
2024/05/28 12:18, 14.96
2024/05/28 12:38, 15.84
2024/05/28 12:58, 19.21
2024/05/28 13:18, 17.25
2024/05/28 13:38, 19.32
2024/05/28 13:58, 19.43
2024/05/28 14:18, 19.31
2024/05/28 14:38, 19.10
2024/05/28 14:58, 18.93
2024/05/28 15:18, 19.32
2024/05/28 15:38, 19.34
2024/05/28 15:58, 19.10
2024/05/28 16:18, 19.26
2024/05/28 16:38, 19.01
2024/05/28 16:58, 18.94
2024/05/28 17:18, 19.34
2024/05/28 17:38, 15.20
2024/05/28 17:58, 15.46
2024/05/28 18:18, 15.90
2024/05/28 18:38, 17.60
2024/05/28 18:58, 15.36
2024/05/28 19:18, 14.91
2024/05/28 19:38, 14.90
2024/05/28 19:58, 14.73
2024/05/28 20:18, 12.87
2024/05/28 20:38, 15.75
2024/05/28 20:58, 15.78
2024/05/28 21:18, 17.75
2024/05/28 21:38, 17.42
2024/05/28 21:58, 16.59
2024/05/28 22:18, 15.33
2024/05/28 22:38, 15.01
2024/05/28 22:58, 14.51
2024/05/28 23:18, 14.21
2024/05/28 23:38, 12.74
2024/05/28 23:58, 12.23
2024/05/29 00:18, 12.11
2024/05/29 00:38, 11.97
2024/05/29 00:58, 11.76
2024/05/29 01:18, 8.34
2024/05/29 01:38, 0.87
2024/05/29 01:58, 0.38
2024/05/29 02:18, 0.38
2024/05/29 02:38, 0.38
2024/05/29 02:58, 0.38
2024/05/29 03:18, 0.38
2024/05/29 03:38, 0.38